North Las Vegas, NV

5:50 PM PST on December 12, 2017 (GMT -0800)
North Las Vegas

Weather History for KVGT - October, 2013

Change the Weather History Date:

Wednesday, October 9, 2013

  Actual Average Record
Temperature  
Mean Temperature 60 °F 71 °F  
Max Temperature 66 °F 83 °F 95 °F (2003)
Min Temperature 53 °F 60 °F 53 °F (2013)
Degree Days  
Heating Degree Days 6 0  
Month to date heating degree days 0  
Since 1 July heating degree days 1  
Cooling Degree Days 0 7  
Month to date cooling degree days 76  
Year to date cooling degree days 3206  
Growing Degree Days 10 (Base 50)    
Moisture  
Dew Point 34 °F    
Average Humidity 38    
Maximum Humidity 80    
Minimum Humidity 21    
Precipitation  
Precipitation 0.01 in 0.01 in 0.01 in (2013)
Month to date precipitation 0.08  
Year to date precipitation 4.04  
Sea Level Pressure  
Sea Level Pressure 29.62 in    
Wind  
Wind Speed 11 mph (SSW)    
Max Wind Speed 20 mph    
Max Gust Speed 25 mph    
Visibility 10 miles    
Events      
T = Trace of Precipitation, MM = Missing Value Source: NWS Daily Summary

Daily Weather History Graph

Daily Weather History Graph

Search for Another Location

Airport or City:

Trip Planner

Search our weather history database for the weather conditions in past years. The results will help you decide how hot, cold, wet, or windy it might be!

Date:

Astronomy

Oct. 09, 2013 Rise Set
Actual Time 6:42 AM PDT 6:12 PM PDT
Civil Twilight 6:17 AM PDT 6:38 PM PDT
Nautical Twilight 5:47 AM PDT 7:07 PM PDT
Astronomical Twilight 5:17 AM PDT 7:37 PM PDT
Moon 11:35 AM PDT (10/9) 9:58 PM PDT (10/9)
Length of Visible Light 12h 21m
Length of Day
11h 29m
Waxing Crescent, 26% of the Moon is Illuminated
Oct 9
Waxing Crescent
Oct 11
First Quarter
Oct 18
Full
Oct 26
Last Quarter
Nov 3
New

Hourly Weather History & Observations

Time (PDT) Temp. Dew Point Humidity Pressure Visibility Wind Dir Wind Speed Gust Speed Precip Events Conditions
12:53 AM 64.0 °F 23.0 °F 21% 29.61 in 10.0 mi SSE 5.8 mph - N/A   Clear
1:53 AM 66.0 °F 27.0 °F 23% 29.61 in 10.0 mi South 11.5 mph - N/A   Clear
2:53 AM 66.9 °F 30.0 °F 25% 29.57 in 10.0 mi SSW 16.1 mph - N/A   Clear
3:53 AM 64.9 °F 30.9 °F 28% 29.56 in 10.0 mi South 8.1 mph - N/A   Clear
4:53 AM 64.0 °F 32.0 °F 30% 29.55 in 10.0 mi South 10.4 mph - N/A   Clear
5:53 AM 63.0 °F 30.9 °F 30% 29.55 in 10.0 mi SSE 13.8 mph - N/A   Clear
6:53 AM 63.0 °F 30.9 °F 30% 29.57 in 10.0 mi SSE 11.5 mph - N/A   Clear
7:53 AM 64.0 °F 32.0 °F 30% 29.58 in 10.0 mi SSW 9.2 mph - N/A   Clear
8:53 AM 63.0 °F 33.1 °F 33% 29.60 in 10.0 mi South 15.0 mph 21.9 mph N/A   Clear
9:53 AM 63.0 °F 34.0 °F 34% 29.61 in 10.0 mi South 19.6 mph 24.2 mph N/A   Clear
10:53 AM 64.0 °F 32.0 °F 30% 29.62 in 10.0 mi South 15.0 mph 25.3 mph N/A   Clear
11:53 AM 64.0 °F 30.0 °F 28% 29.63 in 10.0 mi SSW 17.3 mph 24.2 mph N/A   Clear
12:53 PM 64.9 °F 30.9 °F 28% 29.63 in 10.0 mi South 17.3 mph 23.0 mph N/A   Clear
1:53 PM 64.9 °F 32.0 °F 29% 29.63 in 10.0 mi SSW 18.4 mph 25.3 mph N/A   Scattered Clouds
2:53 PM 64.9 °F 32.0 °F 29% 29.63 in 10.0 mi South 13.8 mph - N/A   Overcast
3:53 PM 64.9 °F 34.0 °F 32% 29.63 in 10.0 mi South 9.2 mph - N/A   Scattered Clouds
4:53 PM 64.9 °F 33.1 °F 31% 29.62 in 10.0 mi SE 12.7 mph - N/A   Overcast
5:53 PM 61.0 °F 39.9 °F 46% 29.64 in 10.0 mi West 10.4 mph 19.6 mph 0.00 in   Overcast
6:53 PM 61.0 °F 39.0 °F 44% 29.65 in 10.0 mi WSW 5.8 mph - N/A   Mostly Cloudy
7:53 PM 60.1 °F 37.9 °F 44% 29.66 in 10.0 mi West 4.6 mph - N/A   Overcast
8:53 PM 54.0 °F 46.0 °F 75% 29.69 in 10.0 mi NNW 10.4 mph - 0.01 in   Overcast
9:53 PM 53.1 °F 46.9 °F 80% 29.71 in 10.0 mi NW 9.2 mph - 0.00 in   Overcast
10:53 PM 53.1 °F 45.0 °F 74% 29.71 in 10.0 mi NNW 11.5 mph - 0.00 in   Overcast
11:53 PM 53.1 °F 43.0 °F 69% 29.71 in 10.0 mi NNW 10.4 mph - 0.00 in   Overcast